Location: Atbuku
(36.4936°N, 30.4362°E)
Time: 20:52:03
(UTC+00:00)

Resurs 1-3 - Pass Details

Date: 11 December 2025
Orbit: 613 x 615 km, 97.7° (Epoch: 12 January)

Event Time Altitude Azimuth Distance (km) Brightness Sun altitude
Rises 16:25:47 0° 163° (SSE) 2,868 7.0 -20.0°
Reaches altitude 10° 16:27:57 10° 162° (SSE) 1,967 6.1 -20.5°
Maximum altitude 16:32:14 78° 77° (ENE) 633 3.4 -21.3°
Drops below altitude 10° 16:36:32 10° 351° (N) 1,982 6.1 -22.1°
Sets 16:38:44 0° 350° (N) 2,891 7.0 -22.6°
